Skip Page Navigation
NASA JPL Caltech
NASA Logo - Jet Propulsion Laboratory + View the NASA Portal
+ Near-Earth Object (NEO) Program
Search JPL
JPL Home Earth Solar System Stars & Galaxies Technology
JPL Solar System Dynamics
BODIES ORBITS EPHEMERIDES TOOLS PHYSICAL DATA DISCOVERY FAQ SITE MAP
JPL Small-Body Database Browser
Search: [ help ]  
(2000 AC6)
Classification: Aten [NEO, PHA]          SPK-ID: 3025763
Ephemeris | Orbit Diagram | Orbital Elements | Physical Parameters | Close-Approach Data ]

[ hide orbit diagram ]
Orbit Diagram
Note: Make sure you have Java enabled on your browser to see the applet. This applet is provided as a 3D orbit visualization tool. The applet was implemented using 2-body methods, and hence should not be used for determining accurate long-term trajectories (over several years or decades) or planetary encounter circumstances. For accurate long-term ephemerides, please instead use our Horizons system.
Orbit Viewer

Additional Notes: the orbits shown in the applet are color coded. The planets are white lines, and the asteroid/comet is a blue line. The bright white line indicates the portion of the orbit that is above the ecliptic plane, and the darker portion is below the ecliptic plane. Likewise for the asteroid/comet orbit, the light blue indicates the portion above the ecliptic plane, and the dark blue the portion below the ecliptic plane.

Orbit Viewer applet originally written and kindly provided by Osamu Ajiki (AstroArts), and further modified by Ron Baalke (JPL).


Orbital Elements at Epoch 2456400.5 (2013-Apr-18.0) TDB
Reference: JPL 45 (heliocentric ecliptic J2000)
 Element Value Uncertainty (1-sigma)   Units 
e .2862970252254923 3.6241e-07  
a .8533195942113504 2.0209e-09 AU
q .6090167328220165 3.0998e-07 AU
i 4.708100002952136 1.3988e-05 deg
node 101.6689124236799 2.9411e-05 deg
peri 187.9104439223269 6.0536e-05 deg
M 123.9425107364174 8.1114e-05 deg
tp 2456301.374864755648
(2013-Jan-08.87486476)
6.5017e-05 JED
period 287.9161352786891
0.79
1.0228e-06
2.8e-09
d
yr
n 1.250364102211698 4.4419e-09 deg/d
Q 1.097622455600684 2.5995e-09 AU
  Orbit Determination Parameters
   # obs. used (total)      211  
   data-arc span      4020 days (11.01 yr)  
   first obs. used      2000-01-04  
   last obs. used      2011-01-06  
   planetary ephem.      DE405  
   SB-pert. ephem.      SB405-CPV-2  
   condition code      0  
   fit RMS      .49975  
   data source      ORB  
   producer      Otto Matic  
   solution date      2011-Sep-14 19:36:46  

Additional Information
 Earth MOID = .0462567 AU 
 T_jup = 6.871 
[ show covariance matrix ]

Ephemeris | Orbit Diagram | Orbital Elements | Physical Parameters | Close-Approach Data ]

Physical Parameter Table
Parameter Symbol Value Units Sigma Reference Notes
absolute magnitude H 21.162 mag .83383 45 autocmod 2.5a
SMASSII spectral type spec_B Q   n/a Binzel et al. (2001) Icarus 151, 139-149  

[ show close-approach data ]
Ephemeris | Orbit Diagram | Orbital Elements | Physical Parameters | Close-Approach Data ]
ABOUT SSD CREDITS/AWARDS PRIVACY/COPYRIGHT GLOSSARY LINKS
FirstGov 2013-May-19 00:09 UT
(server date/time)  
NASA Home Page
Site Manager:   Donald K. Yeomans
Webmaster  Alan B. Chamberlin